AFR52VY LFPG-LPPR

Flight info

Callsign AFR52VY
Flight time N/A
Altitude 27000
Route LGL UT176 ROLEN UZ15 DIDAK UN872 TERPO/N0456F350 UN872 ERIGA DCT FUJTI DCT ATLEN DCT INSID/N0403F230 T326 ASPOR ASPOR6C/35
Aircraft A320/M-SDE3FGHIRWY/LB1

Departure

Time N/A
Airport Charles de Gaulle International Airport (LFPG)

Arrival

Time 2026-05-03 20:19
Airport Francisco de Sá Carneiro Airport (LPPR)
Time Latitude Longitude Altitude Speed Heading
2026-05-03 20:15 41.07269 -8.63537 3420 ft 184 kts 347°
2026-05-03 20:15 41.08502 -8.63858 3175 ft 178 kts 347°
2026-05-03 20:15 41.09704 -8.64169 2937 ft 174 kts 347°
2026-05-03 20:15 41.10872 -8.64472 2704 ft 167 kts 347°
2026-05-03 20:16 41.11973 -8.64759 2492 ft 155 kts 347°
2026-05-03 20:16 41.12996 -8.65025 2289 ft 145 kts 347°
2026-05-03 20:16 41.13970 -8.65280 2103 ft 142 kts 346°
2026-05-03 20:16 41.14930 -8.65532 1919 ft 140 kts 347°
2026-05-03 20:17 41.15876 -8.65778 1725 ft 136 kts 346°
2026-05-03 20:17 41.16803 -8.66022 1550 ft 136 kts 347°
2026-05-03 20:17 41.17726 -8.66264 1372 ft 135 kts 347°
2026-05-03 20:17 41.18648 -8.66506 1191 ft 135 kts 348°
2026-05-03 20:18 41.19562 -8.66745 1017 ft 134 kts 347°
2026-05-03 20:18 41.20477 -8.66983 847 ft 134 kts 347°
2026-05-03 20:18 41.21388 -8.67221 660 ft 133 kts 346°
2026-05-03 20:18 41.22297 -8.67468 472 ft 135 kts 347°
2026-05-03 20:19 41.23210 -8.67715 314 ft 134 kts 348°
2026-05-03 20:19 41.24100 -8.67958 222 ft 127 kts 350°
2026-05-03 20:19 41.24843 -8.68140 207 ft 86 kts 349°
2026-05-03 20:19 41.25283 -8.68253 181 ft 26 kts 350°
2026-05-03 20:20 41.25436 -8.68288 176 ft 23 kts 350°
2026-05-03 20:20 41.25581 -8.68313 173 ft 7 kts 27°
2026-05-03 20:20 41.25612 -8.68234 171 ft 13 kts 81°
2026-05-03 20:20 41.25612 -8.68166 170 ft 0 kts 96°
2026-05-03 20:22 41.25612 -8.68162 170 ft 2 kts 96°
2026-05-03 20:22 41.25610 -8.68148 170 ft 2 kts 103°
2026-05-03 20:22 41.25608 -8.68140 170 ft 1 kts 104°
2026-05-03 20:23 41.25591 -8.68108 171 ft 8 kts 141°
2026-05-03 20:23 41.25514 -8.68078 174 ft 14 kts 167°
2026-05-03 20:23 41.25406 -8.68048 177 ft 18 kts 169°
2026-05-03 20:23 41.25273 -8.68016 182 ft 21 kts 169°
2026-05-03 20:24 41.25123 -8.67978 192 ft 23 kts 169°
2026-05-03 20:24 41.24956 -8.67937 194 ft 26 kts 169°
2026-05-03 20:24 41.24795 -8.67848 206 ft 24 kts 153°
2026-05-03 20:24 41.24643 -8.67796 212 ft 21 kts 168°
2026-05-03 20:25 41.24511 -8.67763 219 ft 17 kts 169°
2026-05-03 20:25 41.24412 -8.67737 225 ft 12 kts 169°
2026-05-03 20:25 41.24352 -8.67720 228 ft 6 kts 168°
2026-05-03 20:25 41.24327 -8.67711 229 ft 1 kts 160°
2026-05-03 20:26 41.24323 -8.67709 230 ft 2 kts 159°
2026-05-03 20:26 41.24294 -8.67684 232 ft 8 kts 143°
2026-05-03 20:26 41.24246 -8.67613 236 ft 12 kts 126°
2026-05-03 20:26 41.24208 -8.67541 239 ft 7 kts 125°
2026-05-03 20:27 41.24183 -8.67503 240 ft 4 kts 132°
2026-05-03 20:27 41.24175 -8.67491 241 ft 0 kts 137°
2026-05-03 20:27 41.24154 -8.67474 241 ft 9 kts 150°
2026-05-03 20:28 41.24069 -8.67432 242 ft 11 kts 166°
2026-05-03 20:28 41.24049 -8.67371 244 ft 5 kts 90°
2026-05-03 20:28 41.24054 -8.67343 245 ft 2 kts 76°
2026-05-03 20:28 41.24055 -8.67336 245 ft 0 kts 76°
2026-05-03 20:29 41.24057 -8.67327 245 ft 1 kts 77°
2026-05-03 20:29 41.24058 -8.67321 245 ft 0 kts 78°
2026-05-03 20:29 41.24059 -8.67316 245 ft 0 kts 78°
2026-05-03 20:30 41.24059 -8.67317 245 ft 0 kts 78°